Weather History for Stockholm Bromma, Sweden

Change the Weather History Date:

Saturday, April 5, 2014

  Actual Average Record
Temperature  
Mean Temperature 38 °F -  
Max Temperature 48 °F 50 °F 55 °F (1999)
Min Temperature 28 °F 34 °F 21 °F (2013)
Degree Days  
Heating Degree Days 27    
Moisture  
Dew Point 23 °F    
Average Humidity 50    
Maximum Humidity 87    
Minimum Humidity 16    
Precipitation  
Precipitation 0.00 in - - ()
Sea Level Pressure  
Sea Level Pressure 30.04 in    
Wind  
Wind Speed 7 mph ()    
Max Wind Speed 16 mph    
Max Gust Speed -    
Visibility 6.6 miles    
Events Rain    
Averages and records for this station are not official NWS values.
T = Trace of Precipitation, MM = Missing Value Source: Averaged Metar Reports

Daily Weather History Graph

Daily Weather History Graph

Search for Another Location

Airport:

Trip Planner

Search our weather history database for the weather conditions in past years. The results will help you decide how hot, cold, wet, or windy it might be!

Date:

Astronomy

Apr. 05, 2014 Rise Set
Actual Time 6:03 AM CEST 7:40 PM CEST
Civil Twilight 5:20 AM CEST 8:23 PM CEST
Nautical Twilight 4:27 AM CEST 9:17 PM CEST
Astronomical Twilight 3:23 AM CEST 10:22 PM CEST
Moon 9:01 AM CEST (4/5) 1:28 AM CEST (4/5)
Length of Visible Light 15h 02m
Length of Day
13h 36m
Waxing Crescent, 32% of the Moon is Illuminated
Apr 5
Waxing Crescent
Apr 7
First Quarter
Apr 15
Full
Apr 22
Last Quarter
Apr 29
New

Hourly Weather History & Observations

Time (CEST) Temp. Windchill Dew Point Humidity Pressure Visibility Wind Dir Wind Speed Gust Speed Precip Events Conditions
12:00 AM 33 °F - 17 °F 39% 30.15 in 31 mi SW 4.5 mph - -   Overcast
12:20 AM 32.0 °F 26.4 °F 17.6 °F 55% 30.12 in 6.2 mi SSW 5.8 mph - N/A   Overcast
12:50 AM 32.0 °F 26.4 °F 17.6 °F 55% 30.12 in 6.2 mi SW 5.8 mph - N/A   Overcast
1:00 AM 32 °F - 16 °F 38% 30.15 in 31 mi SSW 2.2 mph - -   Overcast
1:20 AM 32.0 °F 25.6 °F 15.8 °F 51% 30.12 in 6.2 mi SW 6.9 mph - N/A   Overcast
1:50 AM 32.0 °F 26.4 °F 15.8 °F 51% 30.15 in 6.2 mi SW 5.8 mph - N/A   Overcast
2:00 AM 31 °F - 15 °F 37% 30.16 in 31 mi SSW 4.5 mph - -   Overcast
2:20 AM 30.2 °F 24.3 °F 15.8 °F 55% 30.12 in 6.2 mi SW 5.8 mph - N/A   Overcast
2:50 AM 30.2 °F 24.3 °F 15.8 °F 55% 30.15 in 6.2 mi SW 5.8 mph - N/A   Overcast
3:00 AM 30 °F - 16 °F 42% 30.15 in 31 mi SSW 4.5 mph - -   Overcast
3:20 AM 30.2 °F 26.7 °F 15.8 °F 55% 30.12 in 6.2 mi SSW 3.5 mph - N/A   Overcast
3:50 AM 30.2 °F 25.4 °F 15.8 °F 55% 30.12 in 6.2 mi SW 4.6 mph - N/A   Overcast
4:00 AM 30 °F - 16 °F 42% 30.15 in 31 mi SSW 2.2 mph - -   Overcast
4:20 AM 30.2 °F 24.3 °F 15.8 °F 55% 30.12 in 6.2 mi SW 5.8 mph - N/A   Overcast
4:50 AM 30.2 °F 24.3 °F 17.6 °F 60% 30.12 in 6.2 mi SW 5.8 mph - N/A   Overcast
5:00 AM 30 °F - 17 °F 46% 30.14 in 31 mi SW 4.5 mph - -   Overcast
5:20 AM 28.4 °F 22.2 °F 17.6 °F 64% 30.12 in 6.2 mi SW 5.8 mph - N/A   Overcast
5:50 AM 28.4 °F 22.2 °F 17.6 °F 64% 30.12 in 6.2 mi SSW 5.8 mph - N/A   Overcast
6:00 AM 29 °F - 18 °F 52% 30.14 in 31 mi SSW 4.5 mph - -   Overcast
6:20 AM 28.4 °F 23.3 °F 19.4 °F 69% 30.12 in 6.2 mi SSW 4.6 mph - N/A   Overcast
6:50 AM 30.2 °F 25.4 °F 19.4 °F 64% 30.12 in 6.2 mi SW 4.6 mph - N/A   Overcast
7:00 AM 31 °F - 20 °F 51% 30.13 in 31 mi South 4.5 mph - -   Overcast
7:20 AM 32.0 °F 26.4 °F 21.2 °F 64% 30.12 in 6.2 mi SSW 5.8 mph - N/A   Overcast
7:50 AM 33.8 °F 28.6 °F 21.2 °F 60% 30.12 in - SW 5.8 mph - N/A   Clear
8:00 AM 34 °F - 22 °F 49% 30.13 in 31 mi SSW 4.5 mph - -   Overcast
8:20 AM 35.6 °F 30.7 °F 21.2 °F 56% 30.09 in - SSW 5.8 mph - N/A   Clear
8:50 AM 37.4 °F 31.4 °F 21.2 °F 52% 30.09 in - SSW 8.1 mph - N/A   Clear
9:00 AM 37 °F - 19 °F 34% 30.12 in 28 mi SSW 8.9 mph - -   Overcast
9:20 AM 39.2 °F 33.0 °F 17.6 °F 42% 30.09 in - SSW 9.2 mph - N/A   Clear
9:50 AM 39.2 °F 32.5 °F 15.8 °F 39% 30.09 in - SW 10.4 mph - N/A   Clear
10:00 AM 40 °F - 15 °F 23% 30.12 in 28 mi South 8.9 mph - -   Overcast
10:20 AM 41.0 °F 35.8 °F 15.8 °F 36% 30.09 in - SSW 8.1 mph - N/A   Clear
10:50 AM 42.8 °F 37.5 °F 15.8 °F 34% 30.09 in - SSW 9.2 mph - N/A   Clear
11:00 AM 43 °F - 13 °F 16% 30.09 in 31 mi SSW 8.9 mph - -   Overcast
11:20 AM 44.6 °F 39.2 °F 12.2 °F 27% 30.06 in - SSW 10.4 mph - N/A   Clear
11:50 AM 44.6 °F 39.7 °F 15.8 °F 31% 30.06 in - South 9.2 mph - N/A   Clear
12:00 PM 44 °F - 16 °F 19% 30.07 in 25 mi South 8.9 mph - -   Overcast
12:20 PM 44.6 °F 39.7 °F 17.6 °F 34% 30.06 in - South 9.2 mph - N/A   Clear
12:50 PM 46.4 °F 41.9 °F 15.8 °F 29% 30.04 in - SSW 9.2 mph - N/A   Clear
1:00 PM 46 °F - 17 °F 18% 30.06 in 22 mi South 8.9 mph - -   Overcast
1:20 PM 46.4 °F 41.9 °F 19.4 °F 34% 30.04 in - South 9.2 mph - N/A   Clear
1:50 PM 46.4 °F 41.9 °F 19.4 °F 34% 30.04 in - South 9.2 mph - N/A   Clear
2:00 PM 47 °F - 22 °F 25% 30.04 in 25 mi South 11.2 mph - -   Overcast
2:20 PM 48.2 °F - 24.8 °F 40% 30.01 in - SSW 11.5 mph - N/A   Clear
2:50 PM 48.2 °F - 24.8 °F 40% 30.01 in - SSW 11.5 mph - N/A   Clear
3:00 PM 48 °F - 26 °F 29% 30.03 in 25 mi South 11.2 mph - -   Overcast
3:20 PM 48.2 °F - 24.8 °F 40% 30.01 in - SSW 13.8 mph - N/A   Clear
3:50 PM 46.4 °F 39.8 °F 28.4 °F 50% 30.01 in - South 16.1 mph - N/A   Clear
4:00 PM 45 °F - 29 °F 41% 30.01 in 28 mi South 15.7 mph - -   Overcast
4:20 PM 44.6 °F 38.1 °F 30.2 °F 57% 30.01 in - SSW 13.8 mph - N/A   Clear
4:50 PM 46.4 °F 40.7 °F 30.2 °F 53% 29.98 in - South 12.7 mph - N/A   Clear
5:00 PM 45 °F - 29 °F 42% 29.98 in 25 mi South 13.4 mph - -   Overcast
5:20 PM 44.6 °F 38.8 °F 28.4 °F 53% 29.98 in - South 11.5 mph - N/A   Clear
5:50 PM 44.6 °F 38.8 °F 30.2 °F 57% 29.95 in - South 11.5 mph - N/A   Clear
6:00 PM 43 °F - 31 °F 50% 29.96 in 28 mi South 13.4 mph - -   Overcast
6:20 PM 42.8 °F 37.5 °F 30.2 °F 61% 29.95 in - South 9.2 mph - N/A   Clear
6:50 PM 42.8 °F 38.0 °F 30.2 °F 61% 29.95 in - South 8.1 mph - N/A   Clear
7:00 PM 42 °F - 31 °F 53% 29.95 in 25 mi South 8.9 mph - -   Overcast
7:20 PM 41.0 °F 35.2 °F 30.2 °F 65% 29.92 in 6.2 mi South 9.2 mph - N/A   Overcast
7:50 PM 41.0 °F 34.7 °F 30.2 °F 65% 29.92 in 6.2 mi South 10.4 mph - N/A   Overcast
8:00 PM 41 °F - 31 °F 56% 29.93 in 22 mi South 8.9 mph - -   Overcast
8:20 PM 41.0 °F 34.7 °F 30.2 °F 65% 29.92 in 6.2 mi South 10.4 mph - N/A   Overcast
8:50 PM 41.0 °F 35.2 °F 32.0 °F 70% 29.89 in 6.2 mi South 9.2 mph - N/A   Overcast
9:00 PM 40 °F - 31 °F 61% 29.91 in 22 mi South 8.9 mph - -   Partly Cloudy
9:20 PM 41.0 °F 35.2 °F 32.0 °F 70% 29.89 in 6.2 mi South 9.2 mph - N/A   Overcast
9:50 PM 41.0 °F 35.2 °F 32.0 °F 70% 29.89 in 6.2 mi South 9.2 mph - N/A   Overcast
10:00 PM 40 °F - 32 °F 65% 29.89 in 25 mi South 6.7 mph - -   Partly Cloudy
10:20 PM 41.0 °F 35.8 °F 32.0 °F 70% 29.89 in 6.2 mi South 8.1 mph - N/A   Mostly Cloudy
10:50 PM 41.0 °F 36.4 °F 32.0 °F 70% 29.86 in 6.2 mi South 6.9 mph - N/A   Overcast
11:00 PM 41 °F - 33 °F 65% 29.88 in 16 mi SSW 6.7 mph - - Rain Drizzle
11:20 PM 41.0 °F 37.1 °F 33.8 °F 76% 29.86 in 6.2 mi SSW 5.8 mph - N/A Rain Light Rain
11:50 PM 39.2 °F 34.2 °F 35.6 °F 87% 29.86 in 6.2 mi SSW 6.9 mph - N/A Rain Light Rain